パンスターズ彗星

C/2017 F2 ( PanSTARRS )

English version
Home page
Updated on September 10, 2020

---------------------------------------------------------------------

・ プロフィール

発見日 2017年3月31日
発見光度 21.2等
発見者 Pan-STARRS 1 telescope (Haleakala)

・ 写真集

・ 軌道要素

Epoch 2017 Nov. 23.0 TT = JDT 2458080.5                                         
T 2017 Nov. 26.38983 TT                                 Rudenko                 
q   6.9276226            (2000.0)            P               Q                  
z  -0.0007680      Peri.  134.91756     -0.87746031     -0.22766586             
 +/-0.0000034      Node    38.66793     -0.22114000     -0.58902662             
e   1.0053204      Incl.   42.50775     +0.42562953     -0.77538113             
From 63 observations 2017 Mar. 31-2019 Mar. 6, mean residual 0".5.              

・ 光度変化

        m1 = -5 + 5 logΔ + 25 log r(t + 100)

---------------------------------------------------------------------

軌道要素はM.P.E.C. 2020-R04に掲載されたものです。
光度グラフはComet for Windowsで作成したものです。

---------------------------------------------------------------------

Copyright(C) Seiichi Yoshida (comet@aerith.net). All rights reserved.